Wind_Speed
53 50 48 44 41 40 38 33 31 31 28 26 28 29 30 35 38 40 35 33 28 29 30 31 36 36 39 47 46 43 38 36 33 23 41 40 37 38 42 40 40 36 34
55 58 54 49 46 45 43 40 36 37 34 33 31 33 35 34 36 37 32 33 38 38 38 39 40 40 41 41 47 49 48 45 40 48 49 47 44 44 40 40 36 36 35
46 54 57 54 53 49 46 44 41 41 40 37 36 38 36 35 32 32 28 37 44 36 38 40 43 45 44 44 47 49 52 52 52 53 55 55 50 44 43 42 39 39 38
41 45 52 52 46 46 42 44 45 43 39 33 35 31 31 30 30 32 29 28 33 32 22 30 34 46 48 45 47 51 51 54 55 57 59 56 54 49 47 45 46 44 41
45 42 50 45 47 43 39 34 37 42 42 36 27 22 30 26 25 29 30 26 24 22 20 21 27 32 32 38 40 52 56 55 57 57 57 56 55 54 52 49 49 49 49
45 40 49 37 33 32 28 27 20 60 49 47 25 34 41 27 23 23 27 29 26 27 25 22 30 32 34 31 35 46 49 52 52 54 54 51 54 53 52 47 46 47 48
47 49 49 42 32 26 26 39 27 44 41 60 52 34 34 33 40 35 34 37 38 34 29 28 27 35 32 26 27 33 49 50 45 49 50 49 51 54 53 53 52 49 48
55 56 55 57 55 42 32 24 32 30 59 56 29 27 37 36 37 40 43 43 41 36 38 39 30 30 19 34 19 14 26 41 53 50 50 56 58 59 61 59 62 62 55
64 62 60 59 55 50 42 36 45 50 42 27 10 32 41 48 42 39 45 47 45 42 37 37 26 29 25 19 26 27 26 20 23 31 41 47 49 53 55 58 56 53 53
61 67 66 65 57 57 54 60 61 63 58 50 29 30 51 38 39 34 41 50 50 46 45 47 46 38 34 30 31 35 30 15 17 27 33 37 39 40 38 39 44 46 45
61 66 68 64 59 64 64 66 72 58 55 29 44 46 47 45 46 42 40 39 47 55 56 52 44 38 42 34 33 33 31 29 21 21 18 26 37 39 36 34 32 31 43
67 65 69 68 64 70 71 67 63 62 64 57 52 53 53 50 45 30 52 51 50 58 56 47 43 45 41 45 43 39 38 28 26 21 23 23 20 27 36 33 29 24 23
79 74 72 74 69 67 67 71 65 70 70 66 62 63 58 40 44 43 55 52 55 52 48 54 54 54 50 51 50 42 42 45 24 43 28 22 18 15 13 14 18 26 28
70 72 79 80 74 72 69 66 66 70 71 74 76 69 69 62 52 49 50 56 61 58 55 56 52 50 51 52 52 47 49 52 55 53 30 33 42 27 25 28 30 30 29
76 73 78 81 76 78 77 75 73 71 81 86 82 75 75 74 66 67 69 66 65 56 57 61 64 60 57 52 50 50 49 53 55 56 52 42 45 36 33 33 39 36 29
84 78 79 81 80 79 79 82 82 83 83 81 82 84 83 82 84 84 86 85 86 81 79 75 67 62 46 48 56 51 54 53 56 57 64 56 61 62 56 53 40 45 46
92 91 89 85 87 85 84 86 87 88 88 85 87 87 79 86 86 78 84 89 84 85 82 76 61 54 57 56 56 58 60 61 58 58 64 67 69 69 74 68 74 72 70
93 99 103 103 102 100 95 91 90 92 93 95 91 96 91 79 85 88 88 89 90 88 79 72 70 67 62 61 62 64 63 64 65 65 68 73 73 75 75 73 74 74 69
64 77 86 95 100 99 96 96 93 95 92 94 92 94 97 96 88 88 88 88 90 91 86 80 72 75 73 71 69 68 67 70 73 74 75 76 80 80 86 85 80 81 82
53 54 64 75 81 86 93 95 98 97 98 100 95 92 96 94 95 87 89 86 88 89 94 85 82 82 80 76 75 77 75 77 79 79 80 85 88 89 92 89 89 91 91
37 43 48 53 63 73 81 84 90 95 100 101 91 102 98 101 97 97 98 96 95 95 89 86 84 81 81 81 82 82 84 85 83 85 89 93 97 95 96 100 97 98 99
39 39 41 44 49 52 54 61 69 78 88 90 99 102 95 93 92 92 97 96 99 97 95 97 95 88 84 83 86 89 88 89 91 93 98 100 103 102 100 98 98 97 93
48 49 50 53 52 55 57 58 56 59 63 67 73 77 88 90 91 90 89 92 95 96 97 94 90 89 87 89 92 94 97 97 98 100 104 103 103 102 103 105 106 102 103
53 57 57 57 60 62 63 63 64 62 62 64 66 67 69 70 74 79 82 84 90 94 94 94 96 97 98 100 102 102 103 104 106 107 108 106 106 107 109 107 106 104 105
61 63 65 69 66 67 70 72 73 74 79 79 74 71 74 77 75 80 85 85 85 87 89 93 98 100 103 105 106 106 106 107 105 106 107 110 114 114 111 110 109 105 107
61 65 67 68 70 74 78 78 79 81 83 80 77 72 71 73 78 79 83 88 90 94 96 98 101 104 106 107 107 108 108 109 110 111 114 115 113 108 110 110 104 99 96
Wind_Direction
238 234 234 235 242 249 252 253 253 257 261 266 273 276 281 286 286 289 283 266 264 270 273 277 266 261 263 259 260 256 251 240 237 243 237 247 261 266 278 281 283 282 287
247 243 240 243 242 244 250 255 260 263 268 270 274 288 286 299 299 287 283 270 259 263 272 277 274 274 279 260 254 255 250 249 241 240 248 250 264 270 276 276 276 281 284
258 251 247 245 248 248 250 258 256 261 267 272 280 282 282 291 281 284 264 268 261 270 277 280 281 278 272 266 259 252 249 246 245 244 250 255 264 268 267 270 274 283 289
249 246 242 242 245 249 253 261 265 264 266 270 267 271 279 291 288 273 261 268 273 278 286 284 285 276 272 263 259 250 245 242 244 248 253 257 261 263 263 269 270 276 280
239 245 244 239 238 243 245 261 277 266 265 273 260 303 300 285 278 273 267 256 254 262 276 295 312 306 290 271 259 248 249 245 243 246 251 255 261 265 268 273 270 270 273
225 239 250 244 235 234 225 226 319 255 253 261 261 311 303 282 266 272 252 248 256 268 282 310 325 330 310 289 263 241 245 255 254 249 252 255 260 262 263 264 270 267 271
223 225 232 222 202 195 210 211 223 214 243 246 266 297 294 285 276 269 263 264 280 273 282 305 315 332 335 304 272 255 240 243 253 262 264 267 264 264 265 265 265 268 271
226 221 222 219 220 214 204 211 215 230 206 242 269 288 287 289 293 267 265 268 276 281 286 286 302 310 346 347 353 306 274 256 246 248 255 255 257 258 262 265 265 266 266
222 221 219 214 215 210 207 197 215 218 216 224 262 298 278 281 287 281 272 269 277 277 288 293 295 302 309 310 336 336 343 326 287 269 263 265 268 270 270 269 269 269 271
218 219 217 218 213 215 220 217 216 225 230 242 244 240 261 274 278 284 283 270 276 274 276 287 288 287 288 296 309 318 329 306 301 280 273 267 270 274 274 276 265 260 262
214 220 216 219 227 235 226 214 216 228 227 205 208 219 231 248 265 273 273 274 268 271 269 276 284 284 277 288 296 308 311 304 301 300 299 282 271 265 267 276 279 278 266
226 226 227 227 234 233 225 215 226 219 222 215 217 230 239 251 262 264 262 261 263 261 268 276 275 278 287 290 293 294 302 306 288 307 308 306 288 275 263 263 278 291 290
230 232 229 233 232 229 232 230 228 225 220 224 230 234 238 245 248 220 241 245 254 262 272 269 276 278 279 284 285 287 290 297 286 308 291 308 305 304 286 264 277 280 273
230 234 233 233 231 231 239 241 228 231 227 228 234 239 232 241 231 248 247 247 255 255 263 272 275 273 278 279 274 280 278 288 297 306 288 282 311 295 282 267 285 277 279
236 242 236 233 235 237 244 243 238 240 231 232 232 239 239 245 244 248 253 257 263 263 263 269 275 275 273 267 275 276 274 286 294 301 301 283 301 304 293 282 264 265 282
237 238 235 234 238 239 242 244 247 250 242 245 240 243 245 246 254 255 257 257 261 264 270 274 277 276 260 264 275 270 277 285 289 294 296 293 298 296 296 307 280 289 282
237 236 238 241 244 244 248 252 251 250 248 248 252 250 254 251 255 262 263 264 267 264 264 273 274 261 260 263 270 268 271 278 281 283 287 291 296 294 298 300 300 303 295
244 243 242 245 249 252 254 255 252 248 248 250 252 254 254 257 255 259 264 267 268 267 269 267 266 269 266 269 272 270 270 273 278 281 280 287 285 285 291 291 292 293 291
250 248 249 248 247 250 251 251 255 255 256 257 255 251 253 255 260 262 259 260 262 263 261 266 265 266 264 267 268 268 266 270 277 280 278 281 284 285 287 289 287 288 290
256 251 250 250 249 250 248 250 253 255 259 261 257 257 257 260 261 263 255 257 262 262 263 262 260 261 266 265 266 270 267 271 273 276 275 276 279 284 285 285 285 289 291
256 248 246 246 246 249 251 251 252 254 256 258 263 263 261 263 260 259 254 258 263 261 260 261 259 260 262 264 268 269 270 271 272 274 276 277 279 282 283 283 283 287 286
244 253 258 254 255 249 248 249 249 250 252 255 256 257 259 260 260 261 262 261 261 260 259 260 259 261 263 264 266 268 268 270 270 272 274 276 277 280 281 281 281 282 281
238 245 250 249 249 253 258 258 251 248 248 248 251 254 255 256 257 258 259 260 260 260 260 260 260 261 262 263 264 265 267 269 273 273 273 275 275 277 277 278 280 278 278
253 253 252 253 255 256 255 258 260 256 256 255 250 250 255 255 252 251 253 254 255 257 259 261 261 260 263 264 264 265 266 267 269 270 273 276 277 279 279 277 277 276 276
258 263 266 262 262 262 258 258 257 257 259 263 265 261 257 256 253 253 253 254 255 256 257 258 259 260 261 263 265 267 268 268 271 273 273 275 276 277 275 275 275 272 274
265 264 263 263 263 265 267 270 270 271 271 271 272 270 267 266 262 260 258 258 259 260 262 262 263 262 262 264 266 266 267 269 270 270 271 272 273 273 276 275 274 273 274
Height
10874 10878 10883 10890 10899 10903 10903 10906 10907 10908 10912 10915 10916 10915 10914 10913 10912 10912 10912 10911 10910 10910 10909 10909 10909 10909 10909 10911 10915 10917 10920 10921 10921 10919 10922 10924 10923 10922 10922 10921 10923 10922 10920
10868 10869 10873 10882 10887 10893 10895 10897 10900 10902 10903 10906 10907 10908 10906 10902 10901 10902 10903 10903 10900 10900 10900 10898 10897 10897 10897 10898 10901 10905 10909 10911 10910 10911 10911 10911 10912 10912 10914 10916 10915 10914 10912
10855 10865 10866 10870 10872 10878 10882 10885 10889 10891 10891 10896 10900 10901 10899 10897 10893 10892 10892 10893 10891 10892 10892 10890 10885 10883 10883 10884 10886 10890 10894 10898 10899 10900 10900 10902 10904 10904 10904 10906 10906 10905 10904
10847 10848 10849 10857 10870 10874 10879 10880 10880 10882 10883 10884 10888 10888 10890 10887 10883 10885 10884 10885 10887 10888 10884 10883 10879 10874 10869 10869 10870 10873 10879 10883 10886 10887 10889 10892 10893 10894 10895 10895 10896 10896 10896
10840 10848 10847 10855 10858 10863 10872 10881 10883 10875 10878 10881 10879 10881 10878 10878 10878 10877 10880 10879 10879 10880 10878 10876 10872 10868 10860 10856 10856 10859 10863 10870 10874 10876 10878 10882 10883 10884 10884 10885 10885 10886 10886
10827 10838 10843 10849 10852 10856 10862 10873 10872 10860 10860 10871 10875 10871 10877 10872 10875 10872 10874 10872 10872 10874 10873 10871 10867 10861 10854 10848 10845 10848 10853 10856 10861 10865 10867 10870 10871 10872 10872 10874 10875 10875 10875
10809 10818 10827 10837 10841 10843 10851 10862 10869 10881 10863 10868 10869 10863 10872 10867 10870 10866 10867 10869 10869 10868 10868 10866 10864 10858 10850 10842 10837 10839 10844 10848 10851 10854 10856 10858 10859 10862 10863 10864 10864 10864 10864
10794 10799 10808 10818 10823 10824 10834 10847 10862 10867 10858 10865 10865 10858 10867 10861 10859 10855 10857 10859 10861 10860 10860 10857 10858 10856 10851 10845 10839 10835 10837 10840 10843 10845 10847 10847 10848 10851 10849 10852 10852 10851 10851
10779 10785 10793 10802 10808 10811 10814 10827 10837 10845 10847 10856 10848 10853 10850 10849 10849 10847 10845 10849 10850 10851 10850 10850 10850 10848 10844 10844 10840 10838 10834 10834 10833 10834 10836 10836 10834 10836 10837 10836 10837 10837 10837
10761 10769 10776 10785 10793 10800 10804 10806 10820 10824 10833 10843 10845 10845 10838 10840 10840 10838 10838 10836 10840 10840 10840 10840 10842 10842 10838 10835 10833 10832 10832 10828 10827 10827 10826 10825 10825 10825 10825 10823 10822 10821 10821
10749 10761 10766 10770 10780 10784 10789 10796 10803 10812 10821 10828 10831 10832 10828 10829 10832 10836 10834 10829 10827 10826 10828 10829 10832 10832 10831 10830 10828 10826 10825 10822 10821 10821 10819 10816 10815 10814 10815 10815 10814 10811 10811
10746 10752 10757 10761 10768 10773 10779 10783 10791 10800 10802 10809 10809 10810 10813 10820 10826 10829 10823 10818 10812 10811 10814 10818 10820 10822 10822 10820 10820 10817 10817 10817 10814 10813 10812 10809 10806 10804 10803 10806 10807 10806 10804
10734 10739 10746 10753 10757 10760 10765 10770 10779 10786 10791 10794 10797 10802 10811 10809 10813 10801 10795 10798 10798 10800 10804 10805 10810 10809 10813 10810 10809 10809 10804 10808 10809 10806 10805 10803 10801 10800 10798 10799 10797 10798 10797
10722 10727 10732 10740 10749 10752 10755 10759 10766 10770 10774 10780 10786 10788 10794 10795 10793 10789 10784 10785 10788 10790 10791 10793 10796 10798 10796 10798 10796 10797 10795 10796 10795 10794 10794 10793 10791 10792 10792 10790 10789 10787 10786
10710 10714 10719 10724 10731 10740 10744 10747 10751 10757 10761 10762 10768 10770 10775 10777 10778 10772 10772 10776 10778 10775 10776 10781 10782 10785 10783 10781 10782 10783 10782 10781 10781 10781 10780 10779 10778 10779 10780 10782 10780 10779 10774
10699 10702 10706 10710 10714 10718 10724 10729 10734 10738 10743 10745 10748 10750 10755 10759 10757 10757 10757 10760 10761 10760 10760 10762 10764 10765 10767 10767 10764 10766 10767 10766 10769 10767 10767 10766 10764 10763 10763 10764 10765 10765 10762
10686 10689 10689 10692 10697 10703 10707 10709 10713 10720 10725 10730 10731 10734 10738 10740 10741 10741 10739 10742 10743 10744 10745 10745 10747 10748 10750 10750 10749 10749 10748 10751 10750 10749 10749 10748 10746 10747 10744 10743 10741 10739 10741
10668 10672 10677 10679 10680 10682 10685 10690 10694 10696 10702 10707 10710 10714 10718 10717 10724 10725 10721 10721 10723 10722 10725 10728 10728 10727 10728 10730 10729 10731 10729 10730 10733 10731 10730 10731 10730 10728 10725 10724 10723 10721 10717
10649 10651 10652 10657 10660 10661 10662 10666 10669 10673 10677 10678 10683 10693 10695 10692 10698 10702 10701 10705 10704 10705 10706 10708 10706 10707 10707 10709 10709 10710 10711 10710 10712 10712 10710 10711 10708 10708 10705 10703 10700 10700 10697
10632 10634 10635 10638 10641 10643 10646 10648 10650 10649 10649 10651 10659 10666 10667 10670 10674 10675 10677 10681 10682 10684 10684 10683 10683 10685 10684 10686 10686 10688 10690 10690 10690 10689 10688 10688 10686 10685 10681 10681 10677 10673 10668
10618 10618 10619 10620 10621 10624 10627 10627 10631 10629 10630 10632 10630 10634 10640 10643 10645 10649 10654 10657 10658 10659 10659 10661 10662 10662 10659 10659 10664 10664 10665 10668 10667 10667 10666 10662 10660 10656 10653 10652 10650 10648 10643
10605 10607 10608 10608 10608 10606 10608 10607 10608 10610 10611 10611 10615 10616 10617 10620 10620 10621 10626 10628 10632 10634 10634 10637 10638 10636 10636 10637 10639 10639 10641 10641 10641 10641 10641 10635 10631 10629 10628 10625 10620 10616 10612
10591 10591 10592 10593 10594 10592 10592 10592 10592 10592 10592 10592 10593 10592 10593 10600 10598 10600 10600 10603 10606 10609 10610 10610 10611 10612 10614 10615 10614 10614 10614 10613 10612 10611 10610 10605 10601 10601 10595 10594 10590 10582 10580
10580 10579 10578 10578 10578 10578 10578 10577 10576 10575 10576 10578 10578 10578 10570 10577 10578 10580 10579 10581 10584 10586 10586 10586 10586 10585 10588 10588 10585 10586 10585 10582 10580 10578 10576 10572 10568 10567 10561 10558 10557 10552 10548
10563 10564 10563 10561 10562 10561 10560 10558 10557 10556 10555 10555 10556 10559 10556 10554 10556 10558 10559 10557 10558 10559 10558 10558 10555 10556 10558 10558 10558 10557 10555 10552 10549 10548 10545 10540 10537 10535 10527 10524 10523 10520 10518
10546 10544 10544 10544 10543 10539 10535 10535 10533 10528 10526 10528 10531 10533 10534 10532 10532 10531 10531 10530 10530 10530 10529 10528 10527 10528 10528 10525 10525 10524 10523 10520 10518 10515 10510 10507 10505 10502 10494 10487 10487 10485 10481